Simultaneous Nadir Overpasses (SNOs) Predictions

Prediction of SNOs between GOES-15 and FY3D Satellite Orbit:

Table of predicted SNOs for the next 14.0 days since TLE Epoch: 12/4/2020
Index Date Time (GOES-15) GOES-15 Lat,Lon FY3D Lat,Lon Distance(km) Time Diff (sec)
1 12/04/2020 21:59:37 -0.00,-128.02 0.29,-126.72 148.52 4
2 12/06/2020 10:22:30 0.03,-128.04 0.87,-131.91 439.45 80
3 12/07/2020 10:00:54 0.01,-128.07 -0.17,-127.33 84.69 80
4 12/09/2020 22:03:34 -0.03,-128.12 0.01,-127.96 18.65 80
5 12/12/2020 10:08:47 0.05,-128.15 0.12,-128.56 46.78 80
6 12/13/2020 09:47:10 0.03,-128.16 -0.93,-123.98 476.68 80
7 12/14/2020 22:11:26 -0.07,-128.19 -0.27,-129.19 114.14 80
8 12/15/2020 21:49:50 -0.05,-128.19 0.78,-124.61 408.68 80
9 12/17/2020 10:13:58 0.09,-128.19 0.46,-129.79 181.68 80
10 12/18/2020 09:52:22 0.07,-128.20 -0.59,-125.21 341.17 80
